(201083) = 2002 GE51

Discovered at Anderson Mesa on 2002-04-05 by LONEOS.

Orbit

Orbit type: Main Belt

Note: WebGL enabled browser required.

epoch2023-09-13.0
epoch JD2460200.5
perihelion date2023-08-06.26673
perihelion JD2460162.76673
argument of perihelion (°)164.30192
ascending node (°)42.03704
inclination (°)6.16447
eccentricity0.1926924
perihelion distance (AU)2.1208993
Tisserand w.r.t. Jupiter3.4
ΔV w.r.t. Earth (km/sec)9.3
semimajor axis (AU)2.6271267
mean anomaly (°)8.73387
mean daily motion (°/day)0.23146340
aphelion distance (AU)3.133
period (years)4.26
P-vector [x]-0.89513736
P-vector [y]-0.41969228
P-vector [z]-0.15029138
Q-vector [x]0.43995322
Q-vector [y]-0.77731922
Q-vector [z]-0.44968433
absolute magnitude16.41
phase slope0.15
uncertainty0
referenceMPEC 2023-O110
observations used547
oppositions13
arc length (days)7735
first opposition used2002
last opposition used2023
residual rms (arc-secs)0.74
perturbers coarse indicatorM-v
perturbers precise indicator003Ek
first observation date used2002-03-16.0
last observation date used2023-05-20.0
computer nameMPCLINUX
Minimum Orbit Intersection Distances (in AU)
for orbit epoch: 2460200.5, reference: E2023-OB0
Mercury1.68353
Venus1.399
Earth1.11607
Mars0.50111
Jupiter1.82227
Saturn6.0832
Uranus16.1485
Neptune26.7049

Observations

548 total observations over interval: 2002 03 16.53344 – 2023 05 20.156025
These data are available for download (format description).

Date (UT) J2000 RA J2000 Dec Magn Location Ref
2002 03 16.53344 13 47 08.62 -05 20 31.7 20.2   608 – Haleakala-AMOS MPS 58974
2002 03 16.54371 13 47 08.35 -05 20 31.2 20.0   608 – Haleakala-AMOS MPS 58974
2002 03 16.55411 13 47 08.06 -05 20 30.7 20.1   608 – Haleakala-AMOS MPS 58974
2002 03 27.33602 13 40 55.83 -05 10 19.5 19.1   644 – Palomar Mountain/NEAT MPS 58974
2002 03 27.40641 13 40 52.64 -05 10 14.6 18.9   644 – Palomar Mountain/NEAT MPS 58974
2002 03 27.46927 13 40 49.79 -05 10 09.6 19.0   644 – Palomar Mountain/NEAT MPS 58974
2002 04 05.22296 13 33 49.15 -04 57 58.7 18.3 R 699 – Lowell Observatory-LONEOS MPS 55170
2002 04 05.23961 13 33 48.29 -04 57 57.5   699 – Lowell Observatory-LONEOS MPS 55170
2002 04 05.25626 13 33 47.36 -04 57 56.0   699 – Lowell Observatory-LONEOS MPS 55170
2002 04 05.27311 13 33 46.47 -04 57 54.8   699 – Lowell Observatory-LONEOS MPS 55170
2002 04 08.26468 13 31 06.81 -04 53 37.4 18.2   644 – Palomar Mountain/NEAT MPS 55170
2002 04 08.33068 13 31 03.06 -04 53 31.7 18.2   644 – Palomar Mountain/NEAT MPS 55170
2002 04 08.39381 13 30 59.48 -04 53 26.6 18.0   644 – Palomar Mountain/NEAT MPS 55170
2002 04 10.31480 13 29 14.46 -04 50 46.5 18.6   704 – Lincoln Laboratory ETS, New Mexico MPS 57404
2002 04 10.32640 13 29 13.78 -04 50 45.2 18.8   704 – Lincoln Laboratory ETS, New Mexico MPS 57404
2002 04 10.33780 13 29 13.19 -04 50 43.8 19.1   704 – Lincoln Laboratory ETS, New Mexico MPS 57404
2002 04 10.34919 13 29 12.49 -04 50 43.6 18.9   704 – Lincoln Laboratory ETS, New Mexico MPS 57404
2002 04 17.27647 13 22 49.26 -04 42 34.7 18.2   704 – Lincoln Laboratory ETS, New Mexico MPS 57404
2002 04 17.29007 13 22 48.48 -04 42 33.8 18.5   704 – Lincoln Laboratory ETS, New Mexico MPS 57404
2002 04 17.30367 13 22 47.71 -04 42 33.3 18.5   704 – Lincoln Laboratory ETS, New Mexico MPS 57404
2002 04 17.33093 13 22 46.10 -04 42 32.7 18.4   704 – Lincoln Laboratory ETS, New Mexico MPS 57404
2002 05 08.21690 13 06 48.76 -04 46 46.9 18.6   704 – Lincoln Laboratory ETS, New Mexico MPS 57404
2002 05 08.22941 13 06 48.28 -04 46 47.4 19.6   704 – Lincoln Laboratory ETS, New Mexico MPS 57404
2002 05 08.24183 13 06 47.86 -04 46 48.8 19.3   704 – Lincoln Laboratory ETS, New Mexico MPS 57404
2002 05 08.25431 13 06 47.37 -04 46 49.8 19.9   704 – Lincoln Laboratory ETS, New Mexico MPS 57404
2002 05 08.26674 13 06 47.01 -04 46 50.4 19.6   704 – Lincoln Laboratory ETS, New Mexico MPS 57404
2002 05 16.23854 13 03 25.92 -05 04 27.5 19.5   704 – Lincoln Laboratory ETS, New Mexico MPS 57404
2002 05 16.25359 13 03 25.49 -05 04 29.4 19.4   704 – Lincoln Laboratory ETS, New Mexico MPS 57404
2002 05 16.26866 13 03 25.29 -05 04 34.1 19.2   704 – Lincoln Laboratory ETS, New Mexico MPS 57404
2002 05 16.28373 13 03 24.94 -05 04 36.1 19.5   704 – Lincoln Laboratory ETS, New Mexico MPS 57404
2002 06 08.17191 13 04 37.05 -06 47 48.6 19.1   704 – Lincoln Laboratory ETS, New Mexico MPS 57404
2002 06 08.18575 13 04 37.30 -06 47 54.2 19.7   704 – Lincoln Laboratory ETS, New Mexico MPS 57404
2002 06 08.19960 13 04 37.57 -06 47 59.6 19.6   704 – Lincoln Laboratory ETS, New Mexico MPS 57404
2002 06 08.22734 13 04 38.18 -06 48 08.8 19.7   704 – Lincoln Laboratory ETS, New Mexico MPS 57404
2004 10 10.43772 03 45 12.45 +20 27 31.4 21.2 V 691 – Steward Observatory, Kitt Peak-Spacewatch MPS 118381
2004 10 10.46540 03 45 11.62 +20 27 31.2 21.2 V 691 – Steward Observatory, Kitt Peak-Spacewatch MPS 118381
2004 10 10.49281 03 45 10.78 +20 27 31.4 20.8 V 691 – Steward Observatory, Kitt Peak-Spacewatch MPS 118381
2004 10 23.39398 03 36 58.85 +20 22 26.8 20.8 V 691 – Steward Observatory, Kitt Peak-Spacewatch MPS 118381
2004 10 23.42251 03 36 57.45 +20 22 25.4 21.1 V 691 – Steward Observatory, Kitt Peak-Spacewatch MPS 118382
2004 10 23.46303 03 36 55.53 +20 22 22.8 21.1 V 691 – Steward Observatory, Kitt Peak-Spacewatch MPS 118382
2004 10 24.25710 03 36 18.66 +20 21 40.3 21.2 V 291 – LPL/Spacewatch II MPS 118382
2004 10 24.26697 03 36 18.22 +20 21 39.8 21.3 V 291 – LPL/Spacewatch II MPS 118382
2004 10 24.27389 03 36 17.84 +20 21 39.5 21.2 V 291 – LPL/Spacewatch II MPS 118382
2004 10 24.33299 03 36 14.99 +20 21 36.1 21.4 V 291 – LPL/Spacewatch II MPS 118382
2004 10 24.33912 03 36 14.70 +20 21 36.2 21.2 V 291 – LPL/Spacewatch II MPS 118382
2004 10 24.34526 03 36 14.39 +20 21 36.1 21.1 V 291 – LPL/Spacewatch II MPS 118382
2004 11 19.19554 03 12 02.53 +19 37 01.1 20.6 V 691 – Steward Observatory, Kitt Peak-Spacewatch MPS 120454
2004 11 19.20114 03 12 02.20 +19 37 00.5 20.8 V 691 – Steward Observatory, Kitt Peak-Spacewatch MPS 120454
2004 11 19.23563 03 12 00.12 +19 36 55.8 20.5 V 691 – Steward Observatory, Kitt Peak-Spacewatch MPS 120454
2006 02 04.30260 10 59 26.35 +17 15 48.7 18.9   704 – Lincoln Laboratory ETS, New Mexico MPS 162753
2006 02 04.31567 10 59 25.83 +17 15 52.8 19.6   704 – Lincoln Laboratory ETS, New Mexico MPS 162753
2006 02 04.32984 10 59 25.33 +17 15 57.1 19.3   704 – Lincoln Laboratory ETS, New Mexico MPS 162753
2006 02 04.34355 10 59 24.79 +17 16 00.7 19.3   704 – Lincoln Laboratory ETS, New Mexico MPS 162753
2006 02 20.35227 10 47 09.88 +18 40 57.3 18.8 V 703 – Catalina Sky Survey MPS 163741
2006 02 20.35867 10 47 09.56 +18 40 59.7 18.9 V 703 – Catalina Sky Survey MPS 163741
2006 02 20.36507 10 47 09.20 +18 41 01.3 18.9 V 703 – Catalina Sky Survey MPS 163741
2006 02 20.37148 10 47 08.80 +18 41 04.1 18.9 V 703 – Catalina Sky Survey MPS 163741
2006 02 20.44833 10 47 04.70 +18 41 25.4 17.9 V 703 – Catalina Sky Survey MPS 163741
2006 02 20.45781 10 47 03.94 +18 41 28.9 18.6 V 703 – Catalina Sky Survey MPS 163741
2006 02 20.46727 10 47 03.33 +18 41 31.6 18.9 V 703 – Catalina Sky Survey MPS 163741
2006 02 22.24224 10 45 25.34 +18 50 12.7 18.4 R 699 – Lowell Observatory-LONEOS MPS 163741
2006 02 22.28795 10 45 22.60 +18 50 25.3   699 – Lowell Observatory-LONEOS MPS 163741
2006 02 22.31080 10 45 21.32 +18 50 33.0   699 – Lowell Observatory-LONEOS MPS 163741
2006 03 03.22521 10 36 47.25 +19 27 54.4 18.7 R 699 – Lowell Observatory-LONEOS MPS 166016
2006 03 03.25078 10 36 45.70 +19 28 00.2   699 – Lowell Observatory-LONEOS MPS 166016
2006 03 03.27637 10 36 44.13 +19 28 06.1   699 – Lowell Observatory-LONEOS MPS 166016
2006 03 03.31115 10 36 42.04 +19 28 13.6   699 – Lowell Observatory-LONEOS MPS 166016
2006 04 19.15740 10 14 16.27 +18 17 11.7 19.5 R 644 – Palomar Mountain/NEAT MPS 169128
2006 04 19.17867 10 14 16.44 +18 17 03.5 19.7 V 703 – Catalina Sky Survey MPS 169128
2006 04 19.17893 10 14 16.52 +18 17 03.8 19.6 R 644 – Palomar Mountain/NEAT MPS 169128
2006 04 19.18675 10 14 16.51 +18 17 00.2 19.9 V 703 – Catalina Sky Survey MPS 169128
2006 04 19.19479 10 14 16.65 +18 16 57.5 20.6 V 703 – Catalina Sky Survey MPS 169128
2006 04 19.19843 10 14 16.71 +18 16 56.7 19.7 R 644 – Palomar Mountain/NEAT MPS 169128
2006 04 19.20291 10 14 16.69 +18 16 55.1 19.9 V 703 – Catalina Sky Survey MPS 169128
2008 10 23.37289 02 12 56.41 +11 54 22.1 20.7 V G96 – Mt. Lemmon Survey MPS 260525
2008 10 23.37950 02 12 56.01 +11 54 20.9 20.6 V G96 – Mt. Lemmon Survey MPS 260525
2008 10 23.38615 02 12 55.62 +11 54 19.5 20.2 V G96 – Mt. Lemmon Survey MPS 260525
2008 10 23.39293 02 12 55.26 +11 54 18.3 20.4 V G96 – Mt. Lemmon Survey MPS 260525
2008 11 07.20274 01 59 26.37 +11 07 04.0 19.7 V G96 – Mt. Lemmon Survey MPS 263074
2008 11 07.20887 01 59 26.05 +11 07 02.0 20.4 V G96 – Mt. Lemmon Survey MPS 263074
2008 11 07.21515 01 59 25.65 +11 07 00.6 20.2 V G96 – Mt. Lemmon Survey MPS 263074
2008 11 07.22130 01 59 25.40 +11 06 59.6 20.2 V G96 – Mt. Lemmon Survey MPS 263074
2008 11 18.16140 01 50 39.14 +10 37 34.4 20.8 V 691 – Steward Observatory, Kitt Peak-Spacewatch MPS 265165
2008 11 18.17797 01 50 38.41 +10 37 32.4 20.5 V 691 – Steward Observatory, Kitt Peak-Spacewatch MPS 265165
2008 11 18.19454 01 50 37.67 +10 37 29.8 20.9 V 691 – Steward Observatory, Kitt Peak-Spacewatch MPS 265165
2008 12 04.20299 01 41 36.27 +10 13 09.1 21.4 V G96 – Mt. Lemmon Survey MPS 267418
2008 12 04.21253 01 41 36.06 +10 13 08.7 21.2 V G96 – Mt. Lemmon Survey MPS 267418
2008 12 04.22210 01 41 35.84 +10 13 08.2 21.2 V G96 – Mt. Lemmon Survey MPS 267418
2008 12 04.23163 01 41 35.62 +10 13 08.1 21.3 V G96 – Mt. Lemmon Survey MPS 267418
2010 01 06.33256 08 29 34.62 +28 49 09.6 19.7   704 – Lincoln Laboratory ETS, New Mexico MPS 310072
2010 01 06.34519 08 29 33.94 +28 49 13.4 19.3   704 – Lincoln Laboratory ETS, New Mexico MPS 310072
2010 01 06.35783 08 29 33.17 +28 49 17.6 19.7   704 – Lincoln Laboratory ETS, New Mexico MPS 310072
